Location: Burbank
(38.7788°N, 114.0429°W)
Time: 20:47:27
(UTC+00:00)

Vanguard 2 Rocket - Pass Details

Date: 20 May 2026
Orbit: 553 x 3286 km, 32.9° (Epoch: 6 June)

Event Time Altitude Azimuth Distance (km) Brightness Sun altitude
Rises 00:11:32 0° 281° (W) 6,835 12.6 27.9°
Reaches altitude 10° 00:16:48 10° 271° (W) 6,043 12.9 26.9°
Maximum altitude 00:31:55 29° 221° (SW) 4,760 11.2 23.9°
Drops below altitude 10° 00:46:13 10° 170° (S) 5,647 10.8 21.2°
Sets 00:51:02 0° 159° (SSE) 6,331 10.9 20.3°
